Location: Colle San Luigi
(43.5500°N, 13.4167°E)
Time: 02:18:53
(UTC+00:00)

Resurs 1-3 - Pass Details

Date: 09 April 2020
Orbit: 630 x 632 km, 97.9° (Epoch: 05 June)

Event Time Altitude Azimuth Distance (km) Brightness Sun altitude
Exits shadow 18:41:31 14° 130° (SE) 1,763 5.3 -11.0°
Maximum altitude 18:44:48 34° 69° (ENE) 1,035 4.3 -11.5°
Drops below altitude 10° 18:48:47 10° 5° (N) 2,023 6.4 -12.2°
Sets 18:51:07 0° 356° (N) 2,936 7.4 -12.6°
